Location: Shepherdstown, WV
(39.4326°N, 77.8042°W)
Time: 04:38:34
(UTC-04:00)

Vanguard 3 - Pass Details

Date: 08 August 2021
Orbit: 510 x 3260 km, 33.3° (Epoch: 21 September)

Event Time Altitude Azimuth Distance (km) Brightness Sun altitude
Rises 20:23:26 0° 273° (W) 5,450 13.0 -2.3°
Reaches altitude 10° 20:26:31 10° 270° (W) 4,754 12.4 -2.8°
Maximum altitude 20:41:06 64° 194° (SSW) 3,187 10.1 -5.4°
Drops below altitude 10° 21:00:43 10° 118° (ESE) 6,158 10.9 -8.8°
Enters shadow 21:00:56 10° 118° (ESE) 6,199 10.9 -8.8°
Sets 21:05:24 0° 116° (ESE) 7,073 - -9.5°
